Theta_e
328 324 324 326 325 324 324 326 330 328 325 324 323 322 324 322 319 319 318 316 316 313
327 326 325 328 328 325 328 326 325 324 323 322 321 320 321 319 318 318 316 315 315 313
327 326 327 327 326 327 326 324 322 321 320 320 319 318 318 317 316 315 313 312 313 313
326 326 326 326 326 325 323 321 319 318 317 316 316 316 316 315 313 312 312 313 311 311
325 325 325 325 322 319 319 319 317 316 316 315 314 314 312 310 310 309 309 309 309 308
324 325 324 322 319 318 316 314 316 314 312 312 312 310 310 308 308 308 307 307 306 306
323 323 319 318 317 316 313 313 313 311 313 312 311 310 308 307 307 306 306 305 306 307
321 319 318 317 313 311 314 314 311 310 312 312 310 306 306 306 305 305 304 305 305 307
318 317 315 313 314 308 311 313 311 312 311 310 306 301 302 304 304 304 304 305 307 307
316 315 313 311 309 308 309 308 312 312 311 309 306 300 300 300 305 306 306 306 306 305
315 313 309 306 305 307 307 310 310 310 309 308 304 299 298 299 306 307 305 306 306 305
315 307 305 305 306 307 309 309 308 308 307 306 305 298 298 302 306 305 305 305 303 303
309 305 304 307 307 309 309 308 307 306 306 302 304 296 297 301 306 305 305 307 305 298
305 305 308 308 309 306 306 307 306 304 305 305 303 302 296 296 306 304 303 303 303 302
Wind_Speed
14 10 9 10 8 6 6 5 6 6 6 6 5 4 4 4 3 4 3 6 6 5
13 12 10 10 8 6 6 6 7 6 6 6 5 4 3 4 4 3 4 4 5 6
13 12 11 9 9 9 9 8 7 7 6 5 5 4 4 4 5 4 4 4 6 5
12 12 11 10 10 9 9 8 8 7 6 5 5 5 5 5 5 5 5 5 6 7
13 13 12 10 10 9 10 9 7 7 6 6 6 6 6 6 5 6 6 6 7 8
13 13 12 12 11 10 9 6 7 6 6 6 6 5 6 6 6 5 5 6 7 8
14 14 13 13 12 10 7 9 8 5 6 6 6 6 6 5 5 5 5 6 6 7
12 12 14 13 10 7 8 8 6 6 7 6 5 5 5 5 5 5 6 6 6 6
14 14 14 11 11 7 8 8 6 7 7 6 5 8 6 5 5 5 6 6 6 6
16 17 14 12 9 8 9 6 8 7 7 7 7 5 6 3 4 4 5 5 6 6
18 16 13 11 10 9 7 9 8 8 7 6 7 6 4 0 2 2 4 5 6 6
17 15 13 11 12 9 9 9 8 8 7 6 6 4 4 3 2 3 4 4 5 6
17 15 13 13 11 10 9 8 8 8 6 5 6 5 4 3 2 4 2 1 2 4
15 14 12 12 11 10 9 10 9 8 6 6 4 6 3 2 2 3 3 3 3 4
Wind_Direction
174 171 166 175 163 155 145 133 124 103 92 85 66 45 48 71 58 44 32 24 10 343
176 171 169 168 162 145 130 120 107 96 89 80 71 43 86 69 52 28 25 30 13 346
176 174 164 159 153 143 130 123 117 108 99 88 72 53 52 78 58 35 23 9 3 354
168 163 156 158 146 137 129 126 122 113 97 81 77 65 66 64 36 27 19 13 5 2
152 153 155 144 136 136 126 123 120 111 99 92 80 66 58 50 34 20 15 11 1 0
153 151 145 141 136 137 129 124 108 115 104 105 87 76 62 50 45 41 22 1 352 343
157 153 148 144 138 140 128 125 119 107 112 100 91 73 60 51 38 21 6 359 347 350
151 149 145 144 138 130 129 124 121 128 123 126 105 70 68 48 27 9 351 355 346 356
149 149 149 136 136 130 131 129 132 136 142 127 93 87 74 23 21 13 15 9 358 342
158 151 150 135 133 140 141 141 138 151 137 128 106 90 79 38 43 29 15 3 352 345
152 150 140 134 131 145 147 143 149 137 135 130 106 89 78 357 49 48 18 15 2 0
155 141 141 149 146 143 149 147 144 137 138 131 113 93 84 337 94 47 48 25 34 4
147 143 146 149 143 147 146 147 147 140 126 112 122 102 88 329 63 66 25 8 54 87
134 139 140 143 141 144 147 144 146 138 138 136 124 115 94 359 59 14 340 359 3 26